Terug naar catalogus

CHIMERA-1

LostWetenschapHEO
NORAD 63100·PAYLOAD·🇺🇸 United States

Gelanceerd Feb 27, 2025 vanaf Cape Canaveral Space Force Station

Loading…

Volgende Passages (komende 24 uur)

TLE

VerouderdSource: Space-Track

Epoch: Feb 27, 2025, 00:53 UTC

1 63100U 25038B   25058.03746186 -.00007054  00000-0  00000+0 0  9999
2 63100  28.5200 357.2438 9653600 216.4100   0.0142  0.10463308    06

Volg CHIMERA-1 in realtime met AllMySat

Download on the App Store